LUJ355 LSZA-LIEE

Flight info

Callsign LUJ355
Flight time 1h 46m
Altitude 25000
Route SRN DCT TORTU A9 CORSI DCT KOVAS
Aircraft PC12/L-SBDFGRWY/S

Departure

Time 2026-05-07 14:45
Airport Lugano Airport (LSZA)

Arrival

Time 2026-05-07 16:31
Airport Cagliari Elmas Airport (LIEE)
Time Latitude Longitude Altitude Speed Heading
2026-05-07 14:31 46.00258 8.90770 923 ft 0 kts 19°
2026-05-07 14:34 46.00257 8.90770 923 ft 0 kts 19°
2026-05-07 14:40 46.00265 8.90773 923 ft 4 kts 15°
2026-05-07 14:41 46.00276 8.90806 920 ft 5 kts 109°
2026-05-07 14:41 46.00266 8.90846 921 ft 0 kts 109°
2026-05-07 14:42 46.00249 8.90860 921 ft 9 kts 181°
2026-05-07 14:42 46.00195 8.90834 920 ft 11 kts 199°
2026-05-07 14:42 46.00151 8.90827 920 ft 0 kts 120°
2026-05-07 14:43 46.00151 8.90828 920 ft 0 kts 119°
2026-05-07 14:43 46.00146 8.90851 921 ft 7 kts 104°
2026-05-07 14:44 46.00141 8.90924 920 ft 5 kts 75°
2026-05-07 14:44 46.00148 8.90932 924 ft 4 kts 13°
2026-05-07 14:44 46.00358 8.91029 921 ft 59 kts 19°
2026-05-07 14:44 46.00863 8.91277 981 ft 89 kts 20°
2026-05-07 14:45 46.01480 8.91603 1213 ft 101 kts 24°
2026-05-07 14:45 46.02163 8.91955 1487 ft 109 kts 20°
2026-05-07 14:45 46.02882 8.92507 1682 ft 127 kts 50°
2026-05-07 14:45 46.03040 8.93752 1933 ft 138 kts 122°
2026-05-07 14:46 46.02193 8.94082 2182 ft 142 kts 214°
2026-05-07 14:46 46.01456 8.93137 2607 ft 144 kts 226°
2026-05-07 14:46 46.00783 8.92002 2935 ft 153 kts 232°
2026-05-07 14:46 46.00017 8.90956 3377 ft 153 kts 211°
2026-05-07 14:47 45.99030 8.90372 3805 ft 154 kts 199°
2026-05-07 14:47 45.98022 8.89902 4249 ft 155 kts 198°
2026-05-07 14:47 45.96982 8.89415 4695 ft 156 kts 199°
2026-05-07 14:47 45.95950 8.88927 5126 ft 157 kts 199°
2026-05-07 14:48 45.94922 8.88440 5556 ft 158 kts 199°
2026-05-07 14:48 45.93873 8.87942 5995 ft 160 kts 199°
2026-05-07 14:48 45.92814 8.87440 6428 ft 161 kts 199°
2026-05-07 14:48 45.91746 8.86934 6849 ft 162 kts 199°
2026-05-07 14:49 45.90667 8.86423 7266 ft 164 kts 199°
2026-05-07 14:49 45.89581 8.85909 7693 ft 165 kts 200°
2026-05-07 14:49 45.88485 8.85390 8115 ft 166 kts 199°
2026-05-07 14:49 45.87337 8.85203 8509 ft 169 kts 173°
2026-05-07 14:50 45.86234 8.85774 8935 ft 171 kts 153°
2026-05-07 14:50 45.85180 8.86584 9362 ft 172 kts 153°
2026-05-07 14:50 45.84115 8.87390 9802 ft 174 kts 153°
2026-05-07 14:50 45.83054 8.88192 10195 ft 176 kts 153°
2026-05-07 14:51 45.81969 8.89011 10601 ft 177 kts 154°
2026-05-07 14:51 45.80879 8.89835 11007 ft 178 kts 154°
2026-05-07 14:51 45.79763 8.90678 11397 ft 180 kts 154°
2026-05-07 14:51 45.78668 8.91505 11796 ft 181 kts 155°
2026-05-07 14:52 45.77552 8.92348 12206 ft 182 kts 155°
2026-05-07 14:52 45.76423 8.93200 12604 ft 184 kts 155°
2026-05-07 14:52 45.75287 8.94056 13011 ft 185 kts 155°
2026-05-07 14:52 45.74145 8.94919 13412 ft 186 kts 156°
2026-05-07 14:53 45.72994 8.95795 13808 ft 188 kts 156°
2026-05-07 14:53 45.71836 8.96674 14159 ft 189 kts 156°
2026-05-07 14:53 45.70670 8.97559 14517 ft 190 kts 156°
2026-05-07 14:53 45.69496 8.98449 14876 ft 191 kts 156°
2026-05-07 14:54 45.68318 8.99342 15238 ft 193 kts 156°
2026-05-07 14:54 45.67130 9.00242 15590 ft 194 kts 156°
2026-05-07 14:54 45.65947 9.01137 15943 ft 195 kts 156°
2026-05-07 14:54 45.64718 9.01955 16369 ft 193 kts 169°
2026-05-07 14:55 45.63405 9.02134 16814 ft 189 kts 186°
2026-05-07 14:55 45.62081 9.02089 17255 ft 191 kts 186°
2026-05-07 14:55 45.60748 9.02051 17709 ft 192 kts 186°
2026-05-07 14:55 45.59403 9.02013 18158 ft 194 kts 186°
2026-05-07 14:56 45.58049 9.01973 18560 ft 195 kts 186°
2026-05-07 14:56 45.56690 9.01933 18945 ft 196 kts 186°
2026-05-07 14:56 45.55325 9.01893 19330 ft 197 kts 187°
2026-05-07 14:56 45.53949 9.01853 19719 ft 198 kts 187°
2026-05-07 14:57 45.52567 9.01812 20108 ft 199 kts 187°
2026-05-07 14:57 45.51177 9.01772 20498 ft 200 kts 187°
2026-05-07 14:57 45.49782 9.01731 20883 ft 201 kts 187°
2026-05-07 14:57 45.48378 9.01690 21263 ft 202 kts 188°
2026-05-07 14:58 45.46963 9.01649 21645 ft 204 kts 188°
2026-05-07 14:58 45.45540 9.01607 22024 ft 205 kts 188°
2026-05-07 14:58 45.44111 9.01566 22401 ft 206 kts 188°
2026-05-07 14:58 45.42697 9.01525 22778 ft 207 kts 188°
2026-05-07 14:59 45.41253 9.01483 23133 ft 208 kts 188°
2026-05-07 14:59 45.39799 9.01440 23465 ft 209 kts 189°
2026-05-07 14:59 45.38338 9.01398 23753 ft 210 kts 189°
2026-05-07 14:59 45.36870 9.01356 24038 ft 211 kts 189°
2026-05-07 15:00 45.35404 9.01313 24321 ft 211 kts 189°
2026-05-07 15:00 45.33931 9.01271 24604 ft 212 kts 190°
2026-05-07 15:00 45.32452 9.01228 24885 ft 212 kts 190°
2026-05-07 15:00 45.31458 9.01197 24956 ft 219 kts 190°
2026-05-07 15:01 45.29887 9.01144 24961 ft 232 kts 190°
2026-05-07 15:01 45.28239 9.01096 24963 ft 241 kts 189°
2026-05-07 15:01 45.25971 9.01034 24969 ft 250 kts 189°
2026-05-07 15:01 45.24217 9.00986 24970 ft 254 kts 189°
2026-05-07 15:02 45.23022 9.00952 24970 ft 256 kts 189°
2026-05-07 15:02 45.21225 9.00901 24965 ft 258 kts 189°
2026-05-07 15:02 45.19425 9.00850 24964 ft 259 kts 189°
2026-05-07 15:02 45.17617 9.00799 24965 ft 260 kts 189°
2026-05-07 15:03 45.15828 9.00747 24964 ft 261 kts 189°
2026-05-07 15:03 45.14009 9.00696 24969 ft 262 kts 189°
2026-05-07 15:03 45.12183 9.00644 24967 ft 262 kts 189°
2026-05-07 15:03 45.10361 9.00592 24968 ft 262 kts 189°
2026-05-07 15:04 45.08539 9.00540 24969 ft 262 kts 189°
2026-05-07 15:04 45.06714 9.00488 24967 ft 262 kts 189°
2026-05-07 15:04 45.04884 9.00436 24965 ft 262 kts 189°
2026-05-07 15:04 45.03059 9.00384 24963 ft 262 kts 189°
2026-05-07 15:05 45.01233 9.00332 24962 ft 262 kts 189°
2026-05-07 15:05 44.99411 9.00280 24961 ft 262 kts 189°
2026-05-07 15:05 44.97588 9.00228 24960 ft 262 kts 189°
2026-05-07 15:05 44.95764 9.00176 24956 ft 262 kts 189°
2026-05-07 15:06 44.93942 9.00125 24956 ft 262 kts 189°
2026-05-07 15:06 44.92147 9.00074 24959 ft 261 kts 189°
2026-05-07 15:06 44.90327 9.00022 24957 ft 262 kts 189°
2026-05-07 15:06 44.88502 8.99970 24957 ft 262 kts 189°
2026-05-07 15:07 44.86676 8.99918 24955 ft 263 kts 189°
2026-05-07 15:07 44.84849 8.99867 24959 ft 262 kts 189°
2026-05-07 15:07 44.83025 8.99816 24959 ft 262 kts 189°
2026-05-07 15:07 44.81204 8.99764 24958 ft 262 kts 189°
2026-05-07 15:08 44.79382 8.99712 24959 ft 262 kts 189°
2026-05-07 15:08 44.77559 8.99661 24959 ft 262 kts 189°
2026-05-07 15:08 44.75735 8.99610 24965 ft 262 kts 189°
2026-05-07 15:08 44.73906 8.99558 24966 ft 263 kts 189°
2026-05-07 15:09 44.72073 8.99506 24970 ft 263 kts 189°
2026-05-07 15:09 44.70245 8.99455 24970 ft 263 kts 189°
2026-05-07 15:09 44.68419 8.99404 24972 ft 262 kts 189°
2026-05-07 15:09 44.66590 8.99352 24975 ft 262 kts 189°
2026-05-07 15:10 44.64771 8.99301 24975 ft 261 kts 189°
2026-05-07 15:10 44.62958 8.99250 24978 ft 261 kts 189°
2026-05-07 15:10 44.61142 8.99199 24982 ft 261 kts 189°
2026-05-07 15:10 44.59323 8.99147 24979 ft 261 kts 189°
2026-05-07 15:11 44.57502 8.99096 24976 ft 262 kts 189°
2026-05-07 15:11 44.55686 8.99046 24984 ft 261 kts 189°
2026-05-07 15:11 44.53888 8.98995 24983 ft 262 kts 189°
2026-05-07 15:11 44.52069 8.98944 24995 ft 261 kts 189°
2026-05-07 15:12 44.50254 8.98894 24986 ft 261 kts 189°
2026-05-07 15:12 44.48434 8.98842 24987 ft 261 kts 189°
2026-05-07 15:12 44.46619 8.98792 24990 ft 261 kts 189°
2026-05-07 15:12 44.44804 8.98741 24984 ft 261 kts 189°
2026-05-07 15:13 44.42989 8.98691 24983 ft 260 kts 189°
2026-05-07 15:13 44.41176 8.98640 24988 ft 261 kts 189°
2026-05-07 15:13 44.39369 8.98590 24984 ft 260 kts 189°
2026-05-07 15:13 44.37556 8.98539 24983 ft 260 kts 189°
2026-05-07 15:14 44.35753 8.98489 24988 ft 259 kts 189°
2026-05-07 15:14 44.33947 8.98439 24982 ft 259 kts 189°
2026-05-07 15:14 44.32140 8.98388 24984 ft 259 kts 189°
2026-05-07 15:14 44.30343 8.98338 24984 ft 259 kts 189°
2026-05-07 15:15 44.28537 8.98288 24988 ft 258 kts 189°
2026-05-07 15:15 44.26742 8.98238 24982 ft 258 kts 189°
2026-05-07 15:15 44.24945 8.98188 24982 ft 258 kts 189°
2026-05-07 15:15 44.23170 8.98139 24984 ft 258 kts 189°
2026-05-07 15:16 44.21377 8.98090 24984 ft 257 kts 189°
2026-05-07 15:16 44.19583 8.98040 24983 ft 257 kts 189°
2026-05-07 15:16 44.17792 8.97990 24986 ft 257 kts 189°
2026-05-07 15:16 44.16001 8.97941 24985 ft 257 kts 189°
2026-05-07 15:17 44.14211 8.97891 24982 ft 257 kts 189°
2026-05-07 15:17 44.12424 8.97842 24982 ft 257 kts 189°
2026-05-07 15:17 44.10637 8.97792 24983 ft 257 kts 189°
2026-05-07 15:17 44.08853 8.97743 24983 ft 257 kts 189°
2026-05-07 15:18 44.07088 8.97695 24982 ft 256 kts 189°
2026-05-07 15:18 44.05300 8.97645 24980 ft 256 kts 189°
2026-05-07 15:18 44.03519 8.97596 24982 ft 256 kts 189°
2026-05-07 15:18 44.01731 8.97547 24981 ft 256 kts 189°
2026-05-07 15:19 43.99949 8.97498 24981 ft 256 kts 189°
2026-05-07 15:19 43.98166 8.97449 24981 ft 256 kts 189°
2026-05-07 15:19 43.96385 8.97400 24981 ft 256 kts 189°
2026-05-07 15:19 43.94602 8.97351 24981 ft 256 kts 189°
2026-05-07 15:20 43.92821 8.97302 24981 ft 256 kts 189°
2026-05-07 15:20 43.91041 8.97253 24983 ft 256 kts 189°
2026-05-07 15:20 43.89259 8.97204 24977 ft 256 kts 189°
2026-05-07 15:20 43.87479 8.97155 24978 ft 256 kts 189°
2026-05-07 15:21 43.85699 8.97107 24979 ft 256 kts 189°
2026-05-07 15:21 43.83922 8.97058 24983 ft 256 kts 189°
2026-05-07 15:21 43.82143 8.97009 24982 ft 256 kts 189°
2026-05-07 15:21 43.80363 8.96961 24984 ft 256 kts 189°
2026-05-07 15:22 43.78585 8.96912 24982 ft 256 kts 189°
2026-05-07 15:22 43.76832 8.96864 24979 ft 255 kts 189°
2026-05-07 15:22 43.75055 8.96816 24982 ft 255 kts 189°
2026-05-07 15:22 43.73276 8.96767 24983 ft 255 kts 189°
2026-05-07 15:23 43.71500 8.96719 24980 ft 255 kts 189°
2026-05-07 15:23 43.69722 8.96670 24980 ft 255 kts 189°
2026-05-07 15:23 43.67947 8.96622 24983 ft 255 kts 189°
2026-05-07 15:23 43.66168 8.96574 24982 ft 255 kts 189°
2026-05-07 15:24 43.64391 8.96525 24984 ft 255 kts 189°
2026-05-07 15:24 43.62609 8.96477 24981 ft 255 kts 189°
2026-05-07 15:24 43.60833 8.96429 24980 ft 255 kts 189°
2026-05-07 15:24 43.59056 8.96380 24979 ft 255 kts 189°
2026-05-07 15:25 43.57275 8.96332 24981 ft 255 kts 189°
2026-05-07 15:25 43.55500 8.96284 24985 ft 255 kts 189°
2026-05-07 15:25 43.53737 8.96236 24981 ft 255 kts 189°
2026-05-07 15:25 43.51964 8.96188 24983 ft 255 kts 189°
2026-05-07 15:26 43.50185 8.96140 24982 ft 255 kts 189°
2026-05-07 15:26 43.48406 8.96092 24980 ft 255 kts 189°
2026-05-07 15:26 43.46627 8.96044 24983 ft 255 kts 189°
2026-05-07 15:26 43.44851 8.95996 24981 ft 255 kts 189°
2026-05-07 15:27 43.43074 8.95948 24980 ft 255 kts 189°
2026-05-07 15:27 43.41295 8.95900 24981 ft 255 kts 189°
2026-05-07 15:27 43.39520 8.95852 24983 ft 255 kts 189°
2026-05-07 15:27 43.37766 8.95715 24983 ft 251 kts 193°
2026-05-07 15:28 43.36016 8.95517 24983 ft 252 kts 193°
2026-05-07 15:28 43.34267 8.95327 24981 ft 252 kts 193°
2026-05-07 15:28 43.32541 8.95134 24982 ft 252 kts 193°
2026-05-07 15:28 43.30784 8.94936 24982 ft 253 kts 193°
2026-05-07 15:29 43.29029 8.94738 24981 ft 253 kts 193°
2026-05-07 15:29 43.27279 8.94542 24983 ft 253 kts 193°
2026-05-07 15:29 43.25525 8.94346 24984 ft 253 kts 193°
2026-05-07 15:29 43.23771 8.94149 24985 ft 253 kts 193°
2026-05-07 15:30 43.22016 8.93952 24982 ft 253 kts 193°
2026-05-07 15:30 43.20264 8.93745 24979 ft 253 kts 193°
2026-05-07 15:30 43.18514 8.93534 24982 ft 253 kts 193°
2026-05-07 15:30 43.16764 8.93326 24982 ft 253 kts 193°
2026-05-07 15:31 43.15014 8.93120 24981 ft 252 kts 193°
2026-05-07 15:31 43.13260 8.92914 24982 ft 252 kts 193°
2026-05-07 15:31 43.11530 8.92709 24982 ft 252 kts 193°
2026-05-07 15:31 43.09781 8.92503 24981 ft 252 kts 193°
2026-05-07 15:32 43.08030 8.92297 24981 ft 252 kts 193°
2026-05-07 15:32 43.06278 8.92090 24980 ft 252 kts 193°
2026-05-07 15:32 43.04530 8.91885 24981 ft 252 kts 193°
2026-05-07 15:32 43.02778 8.91679 24981 ft 252 kts 193°
2026-05-07 15:33 43.01025 8.91473 24984 ft 252 kts 193°
2026-05-07 15:33 42.99275 8.91267 24980 ft 252 kts 194°
2026-05-07 15:33 42.97524 8.91062 24980 ft 252 kts 194°
2026-05-07 15:33 42.95771 8.90856 24979 ft 252 kts 194°
2026-05-07 15:34 42.94023 8.90651 24982 ft 252 kts 194°
2026-05-07 15:34 42.92274 8.90448 24980 ft 253 kts 193°
2026-05-07 15:34 42.90521 8.90249 24981 ft 253 kts 193°
2026-05-07 15:34 42.88767 8.90049 24982 ft 252 kts 193°
2026-05-07 15:35 42.87015 8.89849 24983 ft 252 kts 194°
2026-05-07 15:35 42.85264 8.89649 24983 ft 252 kts 194°
2026-05-07 15:35 42.83515 8.89449 24980 ft 252 kts 194°
2026-05-07 15:35 42.81767 8.89249 24979 ft 253 kts 194°
2026-05-07 15:36 42.80013 8.89051 24982 ft 253 kts 194°
2026-05-07 15:36 42.78255 8.88866 24979 ft 253 kts 193°
2026-05-07 15:36 42.76495 8.88686 24980 ft 254 kts 193°
2026-05-07 15:36 42.74735 8.88501 24983 ft 253 kts 194°
2026-05-07 15:37 42.72978 8.88297 24982 ft 253 kts 194°
2026-05-07 15:37 42.71241 8.88090 24981 ft 253 kts 194°
2026-05-07 15:37 42.69483 8.87888 24981 ft 253 kts 194°
2026-05-07 15:37 42.67723 8.87688 24983 ft 253 kts 194°
2026-05-07 15:38 42.65967 8.87487 24983 ft 253 kts 194°
2026-05-07 15:38 42.64211 8.87285 24984 ft 253 kts 194°
2026-05-07 15:38 42.62462 8.87085 24983 ft 253 kts 194°
2026-05-07 15:38 42.60700 8.86883 24984 ft 253 kts 194°
2026-05-07 15:39 42.58940 8.86681 24985 ft 254 kts 194°
2026-05-07 15:39 42.57182 8.86481 24989 ft 253 kts 194°
2026-05-07 15:39 42.55422 8.86279 24987 ft 254 kts 194°
2026-05-07 15:39 42.53681 8.86080 24987 ft 255 kts 194°
2026-05-07 15:40 42.51910 8.85878 24984 ft 255 kts 194°
2026-05-07 15:40 42.50140 8.85677 24986 ft 255 kts 194°
2026-05-07 15:40 42.48373 8.85475 24987 ft 255 kts 194°
2026-05-07 15:40 42.46599 8.85272 24986 ft 256 kts 194°
2026-05-07 15:41 42.44824 8.85070 24986 ft 256 kts 194°
2026-05-07 15:41 42.43048 8.84868 24988 ft 255 kts 194°
2026-05-07 15:41 42.41283 8.84668 24988 ft 255 kts 194°
2026-05-07 15:41 42.39515 8.84467 24982 ft 253 kts 194°
2026-05-07 15:42 42.37785 8.84272 24990 ft 252 kts 194°
2026-05-07 15:42 42.36033 8.84072 24986 ft 253 kts 195°
2026-05-07 15:42 42.34272 8.83870 24986 ft 255 kts 194°
2026-05-07 15:42 42.32500 8.83669 24983 ft 256 kts 194°
2026-05-07 15:43 42.30722 8.83468 24980 ft 256 kts 194°
2026-05-07 15:43 42.28944 8.83267 24978 ft 257 kts 194°
2026-05-07 15:43 42.27164 8.83066 24971 ft 257 kts 194°
2026-05-07 15:43 42.25387 8.82865 24973 ft 256 kts 194°
2026-05-07 15:44 42.23606 8.82664 24969 ft 257 kts 194°
2026-05-07 15:44 42.21824 8.82463 24963 ft 257 kts 194°
2026-05-07 15:44 42.20048 8.82265 24960 ft 256 kts 194°
2026-05-07 15:44 42.18275 8.82066 24961 ft 256 kts 194°
2026-05-07 15:45 42.16505 8.81867 24961 ft 255 kts 194°
2026-05-07 15:45 42.14730 8.81667 24956 ft 255 kts 194°
2026-05-07 15:45 42.12972 8.81470 24961 ft 253 kts 194°
2026-05-07 15:45 42.11221 8.81276 24968 ft 253 kts 194°
2026-05-07 15:46 42.07689 8.80877 24970 ft 256 kts 194°
2026-05-07 15:46 42.05907 8.80678 24967 ft 257 kts 194°
2026-05-07 15:46 42.04146 8.80482 24965 ft 257 kts 194°
2026-05-07 15:47 42.02358 8.80283 24966 ft 257 kts 194°
2026-05-07 15:47 42.00582 8.80086 24961 ft 254 kts 194°
2026-05-07 15:47 41.99422 8.79960 24965 ft 251 kts 194°
2026-05-07 15:47 41.97680 8.79763 24966 ft 252 kts 194°
2026-05-07 15:48 41.95927 8.79563 24965 ft 253 kts 194°
2026-05-07 15:48 41.94170 8.79367 24964 ft 254 kts 194°
2026-05-07 15:48 41.92406 8.79172 24966 ft 254 kts 194°
2026-05-07 15:48 41.90642 8.78976 24962 ft 255 kts 194°
2026-05-07 15:49 41.88872 8.78779 24962 ft 255 kts 194°
2026-05-07 15:49 41.87102 8.78582 24966 ft 255 kts 194°
2026-05-07 15:49 41.85328 8.78385 24961 ft 256 kts 194°
2026-05-07 15:49 41.83579 8.78191 24961 ft 256 kts 194°
2026-05-07 15:50 41.81803 8.77993 24960 ft 256 kts 194°
2026-05-07 15:50 41.80026 8.77796 24960 ft 256 kts 194°
2026-05-07 15:50 41.78245 8.77599 24958 ft 257 kts 193°
2026-05-07 15:50 41.76455 8.77504 24955 ft 261 kts 185°
2026-05-07 15:51 41.74642 8.77672 24957 ft 261 kts 185°
2026-05-07 15:51 41.72826 8.77843 24951 ft 261 kts 185°
2026-05-07 15:51 41.71010 8.77997 24952 ft 262 kts 185°
2026-05-07 15:51 41.69185 8.78150 24950 ft 262 kts 185°
2026-05-07 15:52 41.67367 8.78307 24946 ft 262 kts 185°
2026-05-07 15:52 41.65549 8.78465 24949 ft 262 kts 185°
2026-05-07 15:52 41.63731 8.78621 24950 ft 262 kts 185°
2026-05-07 15:52 41.61914 8.78777 24950 ft 262 kts 185°
2026-05-07 15:53 41.60091 8.78933 24950 ft 262 kts 185°
2026-05-07 15:53 41.58293 8.79087 24949 ft 262 kts 185°
2026-05-07 15:53 41.56470 8.79244 24949 ft 262 kts 185°
2026-05-07 15:53 41.54642 8.79401 24951 ft 263 kts 185°
2026-05-07 15:54 41.52818 8.79558 24950 ft 262 kts 185°
2026-05-07 15:54 41.50998 8.79714 24952 ft 262 kts 185°
2026-05-07 15:54 41.49172 8.79870 24948 ft 262 kts 185°
2026-05-07 15:54 41.47354 8.80026 24950 ft 262 kts 185°
2026-05-07 15:55 41.45529 8.80182 24950 ft 262 kts 185°
2026-05-07 15:55 41.43706 8.80338 24948 ft 262 kts 185°
2026-05-07 15:55 41.41885 8.80493 24949 ft 262 kts 185°
2026-05-07 15:55 41.40066 8.80649 24947 ft 262 kts 185°
2026-05-07 15:56 41.38269 8.80802 24948 ft 262 kts 185°
2026-05-07 15:56 41.36448 8.80958 24946 ft 262 kts 185°
2026-05-07 15:56 41.34623 8.81113 24943 ft 262 kts 185°
2026-05-07 15:56 41.32806 8.81308 24946 ft 263 kts 181°
2026-05-07 15:57 41.30988 8.81611 24944 ft 263 kts 182°
2026-05-07 15:57 41.29164 8.81886 24945 ft 263 kts 182°
2026-05-07 15:57 41.27346 8.82163 24941 ft 264 kts 182°
2026-05-07 15:57 41.25523 8.82449 24935 ft 264 kts 182°
2026-05-07 15:58 41.23694 8.82738 24936 ft 264 kts 182°
2026-05-07 15:58 41.21867 8.83024 24938 ft 264 kts 182°
2026-05-07 15:58 41.20070 8.83305 24931 ft 264 kts 182°
2026-05-07 15:58 41.18198 8.83590 24549 ft 274 kts 181°
2026-05-07 15:59 41.16301 8.83886 24205 ft 274 kts 181°
2026-05-07 15:59 41.14404 8.84186 23858 ft 274 kts 181°
2026-05-07 15:59 41.12506 8.84483 23516 ft 275 kts 180°
2026-05-07 15:59 41.10610 8.84778 23111 ft 275 kts 180°
2026-05-07 16:00 41.08712 8.85073 22705 ft 274 kts 180°
2026-05-07 16:00 41.06822 8.85368 22310 ft 273 kts 180°
2026-05-07 16:00 41.04944 8.85661 21915 ft 272 kts 179°
2026-05-07 16:00 41.03066 8.85953 21527 ft 270 kts 179°
2026-05-07 16:01 41.01196 8.86244 21144 ft 269 kts 179°
2026-05-07 16:01 40.99339 8.86532 20765 ft 268 kts 179°
2026-05-07 16:01 40.97516 8.86815 20399 ft 266 kts 178°
2026-05-07 16:01 40.95678 8.87101 20026 ft 265 kts 178°
2026-05-07 16:02 40.93851 8.87384 19660 ft 264 kts 178°
2026-05-07 16:02 40.92032 8.87666 19299 ft 262 kts 178°
2026-05-07 16:02 40.90224 8.87947 18944 ft 261 kts 177°
2026-05-07 16:02 40.88425 8.88225 18595 ft 260 kts 177°
2026-05-07 16:03 40.86634 8.88502 18243 ft 258 kts 177°
2026-05-07 16:03 40.84856 8.88778 17852 ft 257 kts 176°
2026-05-07 16:03 40.83080 8.89052 17454 ft 256 kts 176°
2026-05-07 16:03 40.81316 8.89325 17059 ft 255 kts 176°
2026-05-07 16:04 40.79549 8.89598 16670 ft 255 kts 176°
2026-05-07 16:04 40.77789 8.89869 16294 ft 254 kts 176°
2026-05-07 16:04 40.76032 8.90140 15918 ft 254 kts 176°
2026-05-07 16:04 40.74274 8.90412 15542 ft 254 kts 175°
2026-05-07 16:05 40.72521 8.90682 15177 ft 254 kts 175°
2026-05-07 16:05 40.70770 8.90952 14808 ft 253 kts 175°
2026-05-07 16:05 40.69016 8.91222 14454 ft 253 kts 175°
2026-05-07 16:05 40.67266 8.91491 14087 ft 253 kts 175°
2026-05-07 16:06 40.65542 8.91756 13748 ft 253 kts 175°
2026-05-07 16:06 40.63787 8.92026 13354 ft 253 kts 174°
2026-05-07 16:06 40.62043 8.92294 12960 ft 252 kts 174°
2026-05-07 16:06 40.60300 8.92562 12574 ft 252 kts 174°
2026-05-07 16:07 40.58557 8.92829 12190 ft 251 kts 174°
2026-05-07 16:07 40.56822 8.93096 11812 ft 251 kts 174°
2026-05-07 16:07 40.55094 8.93361 11439 ft 250 kts 174°
2026-05-07 16:07 40.53364 8.93626 11070 ft 250 kts 174°
2026-05-07 16:08 40.51637 8.93890 10703 ft 249 kts 174°
2026-05-07 16:08 40.49912 8.94154 10339 ft 249 kts 173°
2026-05-07 16:08 40.48195 8.94417 9984 ft 248 kts 173°
2026-05-07 16:08 40.46515 8.94675 9943 ft 240 kts 173°
2026-05-07 16:09 40.44883 8.94926 9944 ft 238 kts 173°
2026-05-07 16:09 40.43245 8.95176 9944 ft 237 kts 173°
2026-05-07 16:09 40.41613 8.95425 9944 ft 235 kts 173°
2026-05-07 16:09 40.39988 8.95673 9944 ft 235 kts 173°
2026-05-07 16:10 40.38361 8.95921 9938 ft 235 kts 173°
2026-05-07 16:10 40.36741 8.96168 9942 ft 234 kts 173°
2026-05-07 16:10 40.35125 8.96414 9943 ft 234 kts 173°
2026-05-07 16:10 40.33508 8.96660 9943 ft 234 kts 173°
2026-05-07 16:11 40.31889 8.96907 9940 ft 234 kts 173°
2026-05-07 16:11 40.30267 8.97153 9944 ft 235 kts 173°
2026-05-07 16:11 40.28644 8.97400 9937 ft 235 kts 173°
2026-05-07 16:11 40.27025 8.97646 9940 ft 234 kts 173°
2026-05-07 16:12 40.25408 8.97892 9938 ft 234 kts 173°
2026-05-07 16:12 40.23812 8.98134 9938 ft 233 kts 173°
2026-05-07 16:12 40.22195 8.98380 9945 ft 234 kts 173°
2026-05-07 16:12 40.20582 8.98625 9941 ft 234 kts 173°
2026-05-07 16:13 40.18967 8.98869 9941 ft 234 kts 173°
2026-05-07 16:13 40.17351 8.99115 9946 ft 234 kts 173°
2026-05-07 16:13 40.15735 8.99359 9938 ft 234 kts 173°
2026-05-07 16:13 40.14115 8.99605 9941 ft 234 kts 173°
2026-05-07 16:14 40.12496 8.99850 9938 ft 234 kts 173°
2026-05-07 16:14 40.10879 9.00094 9943 ft 234 kts 173°
2026-05-07 16:14 40.09263 9.00339 9944 ft 234 kts 173°
2026-05-07 16:14 40.07648 9.00583 9941 ft 234 kts 173°
2026-05-07 16:15 40.06031 9.00827 9944 ft 234 kts 173°
2026-05-07 16:15 40.04416 9.01071 9936 ft 234 kts 173°
2026-05-07 16:15 40.02799 9.01315 9939 ft 234 kts 173°
2026-05-07 16:15 40.01178 9.01560 9938 ft 234 kts 173°
2026-05-07 16:16 39.99559 9.01804 9938 ft 234 kts 173°
2026-05-07 16:16 39.97940 9.02048 9944 ft 234 kts 173°
2026-05-07 16:16 39.96321 9.02292 9941 ft 234 kts 173°
2026-05-07 16:16 39.94704 9.02536 9939 ft 234 kts 173°
2026-05-07 16:17 39.93086 9.02779 9938 ft 234 kts 173°
2026-05-07 16:17 39.91471 9.03022 9936 ft 234 kts 173°
2026-05-07 16:17 39.89855 9.03265 9942 ft 234 kts 173°
2026-05-07 16:17 39.88237 9.03508 9938 ft 234 kts 173°
2026-05-07 16:18 39.86621 9.03751 9938 ft 233 kts 173°
2026-05-07 16:18 39.85008 9.03994 9937 ft 233 kts 173°
2026-05-07 16:18 39.83394 9.04236 9938 ft 233 kts 173°
2026-05-07 16:18 39.81804 9.04474 9939 ft 233 kts 173°
2026-05-07 16:19 39.80194 9.04716 9940 ft 233 kts 173°
2026-05-07 16:19 39.78584 9.04957 9940 ft 233 kts 173°
2026-05-07 16:19 39.76976 9.05198 9943 ft 233 kts 173°
2026-05-07 16:19 39.75371 9.05438 9943 ft 233 kts 173°
2026-05-07 16:20 39.73762 9.05679 9942 ft 233 kts 173°
2026-05-07 16:20 39.72155 9.05920 9944 ft 232 kts 173°
2026-05-07 16:20 39.70555 9.06159 9946 ft 232 kts 173°
2026-05-07 16:20 39.68951 9.06399 9943 ft 231 kts 173°
2026-05-07 16:21 39.67353 9.06638 9945 ft 231 kts 173°
2026-05-07 16:21 39.65751 9.06877 9944 ft 231 kts 173°
2026-05-07 16:21 39.64152 9.07074 9929 ft 230 kts 178°
2026-05-07 16:21 39.63636 9.07088 9929 ft 230 kts 178°
2026-05-07 16:22 39.63126 9.07099 9927 ft 230 kts 178°
2026-05-07 16:22 39.61523 9.07134 9924 ft 230 kts 178°
2026-05-07 16:22 39.59921 9.07172 9889 ft 232 kts 178°
2026-05-07 16:22 39.58274 9.07212 9500 ft 240 kts 178°
2026-05-07 16:23 39.56598 9.07252 9112 ft 239 kts 178°
2026-05-07 16:23 39.54987 9.07287 8724 ft 228 kts 178°
2026-05-07 16:23 39.53429 9.07323 8340 ft 220 kts 178°
2026-05-07 16:23 39.51925 9.07201 7959 ft 214 kts 184°
2026-05-07 16:24 39.50458 9.06972 7555 ft 213 kts 189°
2026-05-07 16:24 39.49018 9.06488 7189 ft 211 kts 197°
2026-05-07 16:24 39.47638 9.05860 6761 ft 212 kts 198°
2026-05-07 16:24 39.46250 9.05195 6403 ft 210 kts 198°
2026-05-07 16:25 39.44902 9.04583 6050 ft 202 kts 196°
2026-05-07 16:25 39.43548 9.04036 5479 ft 207 kts 194°
2026-05-07 16:25 39.42233 9.03476 5433 ft 186 kts 199°
2026-05-07 16:25 39.41151 9.02744 5251 ft 172 kts 210°
2026-05-07 16:26 39.40166 9.01852 5108 ft 175 kts 212°
2026-05-07 16:26 39.39164 9.00974 5105 ft 177 kts 211°
2026-05-07 16:26 39.38148 9.00140 5071 ft 156 kts 207°
2026-05-07 16:26 39.37551 8.99730 5007 ft 138 kts 200°
2026-05-07 16:27 39.36345 8.99197 4663 ft 138 kts 192°
2026-05-07 16:27 39.35417 8.98861 4414 ft 137 kts 191°
2026-05-07 16:27 39.34513 8.98606 4230 ft 133 kts 184°
2026-05-07 16:27 39.33581 8.98573 3962 ft 134 kts 169°
2026-05-07 16:28 39.32710 8.98775 3770 ft 116 kts 163°
2026-05-07 16:28 39.31971 8.98993 3461 ft 108 kts 161°
2026-05-07 16:28 39.31263 8.99227 3139 ft 102 kts 159°
2026-05-07 16:28 39.30602 8.99529 2781 ft 99 kts 149°
2026-05-07 16:29 39.29995 8.99884 2312 ft 95 kts 169°
2026-05-07 16:29 39.29444 9.00330 1867 ft 96 kts 154°
2026-05-07 16:29 39.29011 9.00959 1500 ft 94 kts 148°
2026-05-07 16:29 39.28554 9.01567 1201 ft 94 kts 158°
2026-05-07 16:30 39.28094 9.02173 910 ft 91 kts 134°
2026-05-07 16:30 39.27584 9.02640 692 ft 86 kts 140°
2026-05-07 16:30 39.27139 9.03134 488 ft 84 kts 133°
2026-05-07 16:30 39.26706 9.03642 277 ft 84 kts 136°
2026-05-07 16:31 39.26280 9.04117 106 ft 78 kts 135°
2026-05-07 16:31 39.25896 9.04565 11 ft 66 kts 136°
2026-05-07 16:31 39.25607 9.04899 13 ft 44 kts 138°
2026-05-07 16:31 39.25419 9.05112 11 ft 31 kts 139°
2026-05-07 16:32 39.25304 9.05247 10 ft 19 kts 128°
2026-05-07 16:32 39.25346 9.05368 11 ft 15 kts 47°
2026-05-07 16:32 39.25354 9.05378 11 ft 0 kts 47°
2026-05-07 16:34 39.25378 9.05413 11 ft 10 kts 49°
2026-05-07 16:34 39.25397 9.05530 11 ft 18 kts 101°
2026-05-07 16:34 39.25373 9.05621 11 ft 8 kts 129°
2026-05-07 16:34 39.25345 9.05697 11 ft 12 kts 57°
2026-05-07 16:35 39.25401 9.05787 11 ft 14 kts 52°
2026-05-07 16:35 39.25446 9.05851 11 ft 3 kts 347°
2026-05-07 16:35 39.25451 9.05847 11 ft 2 kts 323°
2026-05-07 16:35 39.25479 9.05819 11 ft 7 kts 321°
2026-05-07 16:36 39.25501 9.05797 11 ft 0 kts 322°